Year,Month,Day,Hour,Minute,Value (Times are PST for temperature in C)
2009,07,20,00,00,14.10
2009,07,20,00,01,14.10
2009,07,20,00,02,14.20
2009,07,20,00,03,14.20
2009,07,20,00,04,14.20
2009,07,20,00,05,14.20
2009,07,20,00,06,14.20
2009,07,20,00,07,14.20
2009,07,20,00,08,14.20
2009,07,20,00,09,14.20
2009,07,20,00,10,14.10
2009,07,20,00,11,14.10
2009,07,20,00,12,14.10
2009,07,20,00,13,14.10
2009,07,20,00,14,14.10
2009,07,20,00,15,14.10
2009,07,20,00,16,14.10
2009,07,20,00,17,14.10
2009,07,20,00,18,14.10
2009,07,20,00,19,14.10
2009,07,20,00,20,14.10
2009,07,20,00,21,14.10
2009,07,20,00,22,14.10
2009,07,20,00,23,14.00
2009,07,20,00,24,14.00
2009,07,20,00,25,14.00
2009,07,20,00,26,14.00
2009,07,20,00,27,14.00
2009,07,20,00,28,14.00
2009,07,20,00,29,14.00
2009,07,20,00,30,14.00
2009,07,20,00,31,14.00
2009,07,20,00,32,14.00
2009,07,20,00,33,14.00
2009,07,20,00,34,14.00
2009,07,20,00,35,14.00
2009,07,20,00,36,14.00
2009,07,20,00,37,14.00
2009,07,20,00,38,14.00
2009,07,20,00,39,14.00
2009,07,20,00,40,14.00
2009,07,20,00,41,14.00
2009,07,20,00,42,14.00
2009,07,20,00,43,14.00
2009,07,20,00,44,14.10
2009,07,20,00,45,14.10
2009,07,20,00,46,14.10
2009,07,20,00,47,14.00
2009,07,20,00,48,14.00
2009,07,20,00,49,14.00
2009,07,20,00,50,14.00
2009,07,20,00,51,14.00
2009,07,20,00,52,14.00
2009,07,20,00,53,13.90
2009,07,20,00,54,13.90
2009,07,20,00,55,14.00
2009,07,20,00,56,13.90
2009,07,20,00,57,13.90
2009,07,20,00,58,14.00
2009,07,20,00,59,13.90
2009,07,20,01,00,14.00
2009,07,20,01,01,13.90
2009,07,20,01,02,13.90
2009,07,20,01,03,13.90
2009,07,20,01,04,13.90
2009,07,20,01,05,13.90
2009,07,20,01,06,13.90
2009,07,20,01,07,13.90
2009,07,20,01,08,13.90
2009,07,20,01,09,13.90
2009,07,20,01,10,13.90
2009,07,20,01,11,13.90
2009,07,20,01,12,13.90
2009,07,20,01,13,13.80
2009,07,20,01,14,13.80
2009,07,20,01,15,13.80
2009,07,20,01,16,13.80
2009,07,20,01,17,13.80
2009,07,20,01,18,13.80
2009,07,20,01,19,13.80
2009,07,20,01,20,13.80
2009,07,20,01,21,13.80
2009,07,20,01,22,13.80
2009,07,20,01,23,13.80
2009,07,20,01,24,13.70
2009,07,20,01,25,13.70
2009,07,20,01,26,13.70
2009,07,20,01,27,13.70
2009,07,20,01,28,13.60
2009,07,20,01,29,13.60
2009,07,20,01,30,13.60
2009,07,20,01,31,13.60
2009,07,20,01,32,13.50
2009,07,20,01,33,13.50
2009,07,20,01,34,13.40
2009,07,20,01,35,13.40
2009,07,20,01,36,13.40
2009,07,20,01,37,13.30
2009,07,20,01,38,13.30
2009,07,20,01,39,13.30
2009,07,20,01,40,13.30
2009,07,20,01,41,13.30
2009,07,20,01,42,13.30
2009,07,20,01,43,13.30
2009,07,20,01,44,13.30
2009,07,20,01,45,13.20
2009,07,20,01,46,13.20
2009,07,20,01,47,13.20
2009,07,20,01,48,13.20
2009,07,20,01,49,13.20
2009,07,20,01,50,13.20
2009,07,20,01,51,13.10
2009,07,20,01,52,13.10
2009,07,20,01,53,13.10
2009,07,20,01,54,13.10
2009,07,20,01,55,13.10
2009,07,20,01,56,13.10
2009,07,20,01,57,13.10
2009,07,20,01,58,13.10
2009,07,20,01,59,13.20
2009,07,20,02,00,13.20
2009,07,20,02,01,13.20
2009,07,20,02,02,13.20
2009,07,20,02,03,13.20
2009,07,20,02,04,13.30
2009,07,20,02,05,13.30
2009,07,20,02,06,13.40
2009,07,20,02,07,13.50
2009,07,20,02,08,13.60
2009,07,20,02,09,13.70
2009,07,20,02,10,13.70
2009,07,20,02,11,13.80
2009,07,20,02,12,13.90
2009,07,20,02,13,14.00
2009,07,20,02,14,14.00
2009,07,20,02,15,14.10
2009,07,20,02,16,14.10
2009,07,20,02,17,14.20
2009,07,20,02,18,14.20
2009,07,20,02,19,14.20
2009,07,20,02,20,14.30
2009,07,20,02,21,14.30
2009,07,20,02,22,14.30
2009,07,20,02,23,14.40
2009,07,20,02,24,14.40
2009,07,20,02,25,14.40
2009,07,20,02,26,14.40
2009,07,20,02,27,14.40
2009,07,20,02,28,14.40
2009,07,20,02,29,14.30
2009,07,20,02,30,14.30
2009,07,20,02,31,14.20
2009,07,20,02,32,14.20
2009,07,20,02,33,14.10
2009,07,20,02,34,14.00
2009,07,20,02,35,14.00
2009,07,20,02,36,13.90
2009,07,20,02,37,13.80
2009,07,20,02,38,13.80
2009,07,20,02,39,13.70
2009,07,20,02,40,13.70
2009,07,20,02,41,13.70
2009,07,20,02,42,13.60
2009,07,20,02,43,13.60
2009,07,20,02,44,13.50
2009,07,20,02,45,13.50
2009,07,20,02,46,13.50
2009,07,20,02,47,13.50
2009,07,20,02,48,13.40
2009,07,20,02,49,13.40
2009,07,20,02,50,13.40
2009,07,20,02,51,13.40
2009,07,20,02,52,13.40
2009,07,20,02,53,13.40
2009,07,20,02,54,13.40
2009,07,20,02,55,13.40
2009,07,20,02,56,13.40
2009,07,20,02,57,13.40
2009,07,20,02,58,13.40
2009,07,20,02,59,13.40
2009,07,20,03,00,13.40
2009,07,20,03,01,13.30
2009,07,20,03,02,13.30
2009,07,20,03,03,13.30
2009,07,20,03,04,13.30
2009,07,20,03,05,13.30
2009,07,20,03,06,13.30
2009,07,20,03,07,13.30
2009,07,20,03,08,13.30
2009,07,20,03,09,13.30
2009,07,20,03,10,13.20
2009,07,20,03,11,13.20
2009,07,20,03,12,13.20
2009,07,20,03,13,13.20
2009,07,20,03,14,13.20
2009,07,20,03,15,13.20
2009,07,20,03,16,13.20
2009,07,20,03,17,13.20
2009,07,20,03,18,13.20
2009,07,20,03,19,13.20
2009,07,20,03,20,13.20
2009,07,20,03,21,13.20
2009,07,20,03,22,13.20
2009,07,20,03,23,13.20
2009,07,20,03,24,13.20
2009,07,20,03,25,13.30
2009,07,20,03,26,13.30
2009,07,20,03,27,13.30
2009,07,20,03,28,13.30
2009,07,20,03,29,13.30
2009,07,20,03,30,13.30
2009,07,20,03,34,13.40
2009,07,20,03,35,13.50
2009,07,20,03,36,13.60
2009,07,20,03,37,13.60
2009,07,20,03,38,13.70
2009,07,20,03,39,13.70
2009,07,20,03,40,13.80
2009,07,20,03,41,13.80
2009,07,20,03,42,13.90
2009,07,20,03,43,13.90
2009,07,20,03,44,13.90
2009,07,20,03,45,13.90
2009,07,20,03,46,13.90
2009,07,20,03,47,13.90
2009,07,20,03,48,14.00
2009,07,20,03,49,14.00
2009,07,20,03,50,13.90
2009,07,20,03,51,13.90
2009,07,20,03,52,13.90
2009,07,20,03,53,13.90
2009,07,20,03,54,13.90
2009,07,20,03,55,13.90
2009,07,20,03,56,14.00
2009,07,20,03,57,14.00
2009,07,20,03,58,14.00
2009,07,20,03,59,14.00
2009,07,20,04,00,14.00
2009,07,20,04,01,14.00
2009,07,20,04,02,14.00
2009,07,20,04,03,14.00
2009,07,20,04,04,14.00
2009,07,20,04,05,13.90
2009,07,20,04,06,13.90
2009,07,20,04,07,13.90
2009,07,20,04,08,13.90
2009,07,20,04,09,13.90
2009,07,20,04,10,13.80
2009,07,20,04,11,13.80
2009,07,20,04,12,13.80
2009,07,20,04,13,13.80
2009,07,20,04,14,13.80
2009,07,20,04,15,13.80
2009,07,20,04,16,13.70
2009,07,20,04,17,13.70
2009,07,20,04,18,13.70
2009,07,20,04,19,13.70
2009,07,20,04,20,13.70
2009,07,20,04,21,13.70
2009,07,20,04,22,13.70
2009,07,20,04,23,13.70
2009,07,20,04,24,13.70
2009,07,20,04,25,13.70
2009,07,20,04,26,13.70
2009,07,20,04,27,13.60
2009,07,20,04,28,13.60
2009,07,20,04,29,13.60
2009,07,20,04,30,13.50
2009,07,20,04,31,13.50
2009,07,20,04,32,13.50
2009,07,20,04,33,13.50
2009,07,20,04,34,13.50
2009,07,20,04,35,13.50
2009,07,20,04,36,13.50
2009,07,20,04,37,13.50
2009,07,20,04,38,13.40
2009,07,20,04,39,13.40
2009,07,20,04,40,13.40
2009,07,20,04,41,13.50
2009,07,20,04,42,13.40
2009,07,20,04,43,13.40
2009,07,20,04,44,13.40
2009,07,20,04,45,13.40
2009,07,20,04,46,13.40
2009,07,20,04,47,13.40
2009,07,20,04,48,13.40
2009,07,20,04,49,13.40
2009,07,20,04,50,13.40
2009,07,20,04,51,13.40
2009,07,20,04,52,13.40
2009,07,20,04,53,13.40
2009,07,20,04,54,13.40
2009,07,20,04,55,13.40
2009,07,20,04,56,13.50
2009,07,20,04,57,13.50
2009,07,20,04,58,13.50
2009,07,20,04,59,13.50
2009,07,20,05,00,13.60
2009,07,20,05,01,13.60
2009,07,20,05,02,13.60
2009,07,20,05,03,13.60
2009,07,20,05,04,13.60
2009,07,20,05,05,13.60
2009,07,20,05,06,13.60
2009,07,20,05,07,13.50
2009,07,20,05,08,13.50
2009,07,20,05,09,13.40
2009,07,20,05,10,13.30
2009,07,20,05,11,13.30
2009,07,20,05,12,13.20
2009,07,20,05,13,13.20
2009,07,20,05,14,13.10
2009,07,20,05,15,13.10
2009,07,20,05,16,13.10
2009,07,20,05,17,13.10
2009,07,20,05,18,13.10
2009,07,20,05,19,13.00
2009,07,20,05,20,13.00
2009,07,20,05,21,12.90
2009,07,20,05,22,12.90
2009,07,20,05,23,12.90
2009,07,20,05,24,12.80
2009,07,20,05,25,12.80
2009,07,20,05,26,12.80
2009,07,20,05,27,12.80
2009,07,20,05,28,12.80
2009,07,20,05,29,12.80
2009,07,20,05,30,12.70
2009,07,20,05,31,12.70
2009,07,20,05,32,12.70
2009,07,20,05,33,12.70
2009,07,20,05,34,12.70
2009,07,20,05,35,12.70
2009,07,20,05,36,12.70
2009,07,20,05,37,12.70
2009,07,20,05,38,12.70
2009,07,20,05,39,12.70
2009,07,20,05,40,12.70
2009,07,20,05,41,12.70
2009,07,20,05,42,12.70
2009,07,20,05,43,12.70
2009,07,20,05,44,12.60
2009,07,20,05,45,12.60
2009,07,20,05,46,12.60
2009,07,20,05,47,12.60
2009,07,20,05,48,12.60
2009,07,20,05,49,12.60
2009,07,20,05,50,12.60
2009,07,20,05,51,12.60
2009,07,20,05,52,12.60
2009,07,20,05,53,12.60
2009,07,20,05,54,12.50
2009,07,20,05,55,12.60
2009,07,20,05,56,12.60
2009,07,20,05,57,12.60
2009,07,20,05,58,12.60
2009,07,20,05,59,12.60
2009,07,20,06,00,12.60
2009,07,20,06,01,12.60
2009,07,20,06,02,12.60
2009,07,20,06,03,12.60
2009,07,20,06,04,12.60
2009,07,20,06,05,12.60
2009,07,20,06,06,12.60
2009,07,20,06,07,12.60
2009,07,20,06,08,12.60
2009,07,20,06,09,12.60
2009,07,20,06,10,12.60
2009,07,20,06,11,12.50
2009,07,20,06,12,12.50
2009,07,20,06,13,12.50
2009,07,20,06,14,12.60
2009,07,20,06,15,12.60
2009,07,20,06,16,12.60
2009,07,20,06,17,12.60
2009,07,20,06,18,12.60
2009,07,20,06,19,12.60
2009,07,20,06,20,12.70
2009,07,20,06,21,12.70
2009,07,20,06,22,12.70
2009,07,20,06,23,12.70
2009,07,20,06,24,12.80
2009,07,20,06,25,12.80
2009,07,20,06,26,12.90
2009,07,20,06,27,12.90
2009,07,20,06,28,13.00
2009,07,20,06,29,13.10
2009,07,20,06,30,13.20
2009,07,20,06,31,13.20
2009,07,20,06,32,13.30
2009,07,20,06,33,13.40
2009,07,20,06,34,13.50
2009,07,20,06,35,13.60
2009,07,20,06,36,13.60
2009,07,20,06,37,13.70
2009,07,20,06,38,13.70
2009,07,20,06,39,13.80
2009,07,20,06,40,13.80
2009,07,20,06,41,13.80
2009,07,20,06,42,13.90
2009,07,20,06,43,13.90
2009,07,20,06,44,14.00
2009,07,20,06,45,14.00
2009,07,20,06,46,14.10
2009,07,20,06,47,14.10
2009,07,20,06,48,14.10
2009,07,20,06,49,14.20
2009,07,20,06,50,14.20
2009,07,20,06,51,14.30
2009,07,20,06,52,14.30
2009,07,20,06,53,14.40
2009,07,20,06,54,14.50
2009,07,20,06,55,14.60
2009,07,20,06,56,14.70
2009,07,20,06,57,14.80
2009,07,20,06,58,14.90
2009,07,20,06,59,15.00
2009,07,20,07,00,15.00
2009,07,20,07,01,15.00
2009,07,20,07,02,15.20
2009,07,20,07,03,15.30
2009,07,20,07,04,15.40
2009,07,20,07,05,15.40
2009,07,20,07,06,15.50
2009,07,20,07,07,15.60
2009,07,20,07,08,15.70
2009,07,20,07,09,15.80
2009,07,20,07,10,15.80
2009,07,20,07,11,15.90
2009,07,20,07,12,15.90
2009,07,20,07,13,16.00
2009,07,20,07,14,16.10
2009,07,20,07,15,16.20
2009,07,20,07,16,16.20
2009,07,20,07,17,16.30
2009,07,20,07,18,16.30
2009,07,20,07,19,16.40
2009,07,20,07,20,16.40
2009,07,20,07,21,16.50
2009,07,20,07,22,16.60
2009,07,20,07,23,16.70
2009,07,20,07,24,16.80
2009,07,20,07,25,17.00
2009,07,20,07,26,17.10
2009,07,20,07,27,17.20
2009,07,20,07,28,17.30
2009,07,20,07,29,17.40
2009,07,20,07,30,17.50
2009,07,20,07,31,17.60
2009,07,20,07,32,17.70
2009,07,20,07,33,17.80
2009,07,20,07,34,17.90
2009,07,20,07,35,18.00
2009,07,20,07,36,18.10
2009,07,20,07,37,18.20
2009,07,20,07,38,18.30
2009,07,20,07,39,18.30
2009,07,20,07,40,18.40
2009,07,20,07,41,18.40
2009,07,20,07,42,18.40
2009,07,20,07,43,18.40
2009,07,20,07,44,18.30
2009,07,20,07,45,18.30
2009,07,20,07,46,18.30
2009,07,20,07,47,18.30
2009,07,20,07,48,18.30
2009,07,20,07,49,18.30
2009,07,20,07,50,18.30
2009,07,20,07,51,18.30
2009,07,20,07,52,18.40
2009,07,20,07,53,18.40
2009,07,20,07,54,18.40
2009,07,20,07,55,18.40
2009,07,20,07,56,18.40
2009,07,20,07,57,18.40
2009,07,20,07,58,18.40
2009,07,20,07,59,18.40
2009,07,20,08,00,18.40
2009,07,20,08,01,18.40
2009,07,20,08,02,18.40
2009,07,20,08,03,18.40
2009,07,20,08,04,18.50
2009,07,20,08,05,18.60
2009,07,20,08,06,18.60
2009,07,20,08,07,18.70
2009,07,20,08,08,18.70
2009,07,20,08,09,18.70
2009,07,20,08,10,18.70
2009,07,20,08,11,18.80
2009,07,20,08,12,18.80
2009,07,20,08,13,18.80
2009,07,20,08,14,18.80
2009,07,20,08,15,18.80
2009,07,20,08,16,18.80
2009,07,20,08,17,18.80
2009,07,20,08,18,18.90
2009,07,20,08,19,18.90
2009,07,20,08,20,19.00
2009,07,20,08,21,19.00
2009,07,20,08,22,19.10
2009,07,20,08,23,19.10
2009,07,20,08,24,19.10
2009,07,20,08,25,19.10
2009,07,20,08,26,19.10
2009,07,20,08,27,19.10
2009,07,20,08,28,19.10
2009,07,20,08,29,19.00
2009,07,20,08,30,19.00
2009,07,20,08,31,18.90
2009,07,20,08,32,18.90
2009,07,20,08,33,19.00
2009,07,20,08,34,19.10
2009,07,20,08,35,19.10
2009,07,20,08,36,19.20
2009,07,20,08,37,19.20
2009,07,20,08,38,19.30
2009,07,20,08,39,19.30
2009,07,20,08,40,19.30
2009,07,20,08,41,19.40
2009,07,20,08,42,19.40
2009,07,20,08,43,19.50
2009,07,20,08,44,19.60
2009,07,20,08,45,19.60
2009,07,20,08,46,19.70
2009,07,20,08,47,19.70
2009,07,20,08,48,19.80
2009,07,20,08,49,19.90
2009,07,20,08,50,19.90
2009,07,20,08,51,19.90
2009,07,20,08,52,19.90
2009,07,20,08,53,19.90
2009,07,20,08,54,19.90
2009,07,20,08,55,19.90
2009,07,20,08,56,19.90
2009,07,20,08,57,19.90
2009,07,20,08,58,19.90
2009,07,20,08,59,20.00
2009,07,20,09,00,20.00
2009,07,20,09,01,20.00
2009,07,20,09,02,20.10
2009,07,20,09,03,20.00
2009,07,20,09,04,20.00
2009,07,20,09,05,20.00
2009,07,20,09,06,19.90
2009,07,20,09,07,19.90
2009,07,20,09,08,19.90
2009,07,20,09,09,19.90
2009,07,20,09,10,19.90
2009,07,20,09,11,19.90
2009,07,20,09,12,19.80
2009,07,20,09,13,19.80
2009,07,20,09,14,19.90
2009,07,20,09,15,19.90
2009,07,20,09,16,20.00
2009,07,20,09,17,20.00
2009,07,20,09,18,20.10
2009,07,20,09,19,20.20
2009,07,20,09,20,20.20
2009,07,20,09,21,20.20
2009,07,20,09,22,20.30
2009,07,20,09,23,20.30
2009,07,20,09,24,20.30
2009,07,20,09,25,20.40
2009,07,20,09,26,20.50
2009,07,20,09,27,20.50
2009,07,20,09,28,20.50
2009,07,20,09,29,20.50
2009,07,20,09,30,20.50
2009,07,20,09,31,20.60
2009,07,20,09,32,20.60
2009,07,20,09,33,20.70
2009,07,20,09,34,20.70
2009,07,20,09,35,20.80
2009,07,20,09,36,20.90
2009,07,20,09,37,20.90
2009,07,20,09,38,20.90
2009,07,20,09,39,20.90
2009,07,20,09,40,20.90
2009,07,20,09,41,20.90
2009,07,20,09,42,20.90
2009,07,20,09,43,20.90
2009,07,20,09,44,20.90
2009,07,20,09,45,20.90
2009,07,20,09,46,20.90
2009,07,20,09,47,21.00
2009,07,20,09,48,21.00
2009,07,20,09,49,21.10
2009,07,20,09,50,21.10
2009,07,20,09,51,21.20
2009,07,20,09,52,21.20
2009,07,20,09,53,21.30
2009,07,20,09,54,21.40
2009,07,20,09,55,21.50
2009,07,20,09,56,21.60
2009,07,20,09,57,21.70
2009,07,20,09,58,21.80
2009,07,20,09,59,21.80
2009,07,20,10,00,21.80
2009,07,20,10,01,21.90
2009,07,20,10,02,22.00
2009,07,20,10,03,22.00
2009,07,20,10,04,22.00
2009,07,20,10,05,21.90
2009,07,20,10,06,21.90
2009,07,20,10,07,22.00
2009,07,20,10,08,22.00
2009,07,20,10,09,22.10
2009,07,20,10,10,22.10
2009,07,20,10,11,22.00
2009,07,20,10,12,21.90
2009,07,20,10,13,21.90
2009,07,20,10,14,21.90
2009,07,20,10,15,22.00
2009,07,20,10,16,22.00
2009,07,20,10,17,22.00
2009,07,20,10,18,22.00
2009,07,20,10,19,22.10
2009,07,20,10,20,22.10
2009,07,20,10,21,22.20
2009,07,20,10,22,22.30
2009,07,20,10,23,22.30
2009,07,20,10,24,22.40
2009,07,20,10,25,22.50
2009,07,20,10,26,22.60
2009,07,20,10,27,22.70
2009,07,20,10,28,22.70
2009,07,20,10,29,22.80
2009,07,20,10,30,22.80
2009,07,20,10,31,22.80
2009,07,20,10,32,22.80
2009,07,20,10,33,22.90
2009,07,20,10,34,22.90
2009,07,20,10,35,22.80
2009,07,20,10,36,22.90
2009,07,20,10,37,23.00
2009,07,20,10,38,23.10
2009,07,20,10,39,23.20
2009,07,20,10,40,23.30
2009,07,20,10,41,23.40
2009,07,20,10,42,23.50
2009,07,20,10,43,23.50
2009,07,20,10,44,23.60
2009,07,20,10,45,23.70
2009,07,20,10,46,23.70
2009,07,20,10,47,23.70
2009,07,20,10,48,23.70
2009,07,20,10,49,23.80
2009,07,20,10,50,23.80
2009,07,20,10,51,23.80
2009,07,20,10,52,23.80
2009,07,20,10,53,23.80
2009,07,20,10,54,23.80
2009,07,20,10,55,23.80
2009,07,20,10,56,23.80
2009,07,20,10,57,23.80
2009,07,20,10,58,23.80
2009,07,20,10,59,23.70
2009,07,20,11,00,23.60
2009,07,20,11,01,23.50
2009,07,20,11,02,23.40
2009,07,20,11,03,23.40
2009,07,20,11,04,23.40
2009,07,20,11,05,23.40
2009,07,20,11,06,23.40
2009,07,20,11,07,23.40
2009,07,20,11,08,23.40
2009,07,20,11,09,23.50
2009,07,20,11,10,23.60
2009,07,20,11,11,23.70
2009,07,20,11,12,23.70
2009,07,20,11,13,23.80
2009,07,20,11,14,23.90
2009,07,20,11,15,23.90
2009,07,20,11,16,23.90
2009,07,20,11,17,23.80
2009,07,20,11,18,23.70
2009,07,20,11,19,23.60
2009,07,20,11,20,23.60
2009,07,20,11,21,23.60
2009,07,20,11,22,23.60
2009,07,20,11,23,23.70
2009,07,20,11,24,23.80
2009,07,20,11,25,23.80
2009,07,20,11,26,23.80
2009,07,20,11,27,23.70
2009,07,20,11,28,23.60
2009,07,20,11,29,23.60
2009,07,20,11,30,23.60
2009,07,20,11,31,23.60
2009,07,20,11,32,23.60
2009,07,20,11,33,23.50
2009,07,20,11,34,23.40
2009,07,20,11,35,23.50
2009,07,20,11,36,23.60
2009,07,20,11,37,23.70
2009,07,20,11,38,23.80
2009,07,20,11,39,23.90
2009,07,20,11,40,24.00
2009,07,20,11,41,24.10
2009,07,20,11,42,24.10
2009,07,20,11,43,24.10
2009,07,20,11,44,24.10
2009,07,20,11,45,24.10
2009,07,20,11,46,24.10
2009,07,20,11,47,24.10
2009,07,20,11,48,24.10
2009,07,20,11,49,24.10
2009,07,20,11,50,24.10
2009,07,20,11,51,24.10
2009,07,20,11,52,23.90
2009,07,20,11,53,23.80
2009,07,20,11,54,23.80
2009,07,20,11,55,23.80
2009,07,20,11,56,23.70
2009,07,20,11,57,23.70
2009,07,20,11,58,23.70
2009,07,20,11,59,23.70
2009,07,20,12,00,23.80
2009,07,20,12,01,23.80
2009,07,20,12,02,23.90
2009,07,20,12,03,24.00
2009,07,20,12,04,24.00
2009,07,20,12,05,23.90
2009,07,20,12,06,23.90
2009,07,20,12,07,23.80
2009,07,20,12,08,23.80
2009,07,20,12,09,23.90
2009,07,20,12,10,24.00
2009,07,20,12,11,24.20
2009,07,20,12,12,24.30
2009,07,20,12,13,24.50
2009,07,20,12,14,24.60
2009,07,20,12,15,24.70
2009,07,20,12,16,24.60
2009,07,20,12,17,24.60
2009,07,20,12,18,24.50
2009,07,20,12,19,24.50
2009,07,20,12,20,24.40
2009,07,20,12,21,24.30
2009,07,20,12,22,24.20
2009,07,20,12,23,24.20
2009,07,20,12,24,24.20
2009,07,20,12,25,24.30
2009,07,20,12,26,24.30
2009,07,20,12,27,24.30
2009,07,20,12,28,24.20
2009,07,20,12,29,24.20
2009,07,20,12,30,24.20
2009,07,20,12,31,24.30
2009,07,20,12,32,24.40
2009,07,20,12,33,24.40
2009,07,20,12,34,24.40
2009,07,20,12,35,24.50
2009,07,20,12,36,24.60
2009,07,20,12,37,24.70
2009,07,20,12,38,24.70
2009,07,20,12,39,24.70
2009,07,20,12,40,24.70
2009,07,20,12,41,24.70
2009,07,20,12,42,24.70
2009,07,20,12,43,24.70
2009,07,20,12,44,24.70
2009,07,20,12,45,24.60
2009,07,20,12,46,24.50
2009,07,20,12,47,24.50
2009,07,20,12,48,24.50
2009,07,20,12,49,24.60
2009,07,20,12,50,24.60
2009,07,20,12,51,24.60
2009,07,20,12,52,24.50
2009,07,20,12,53,24.50
2009,07,20,12,54,24.50
2009,07,20,12,55,24.40
2009,07,20,12,56,24.40
2009,07,20,12,57,24.40
2009,07,20,12,58,24.40
2009,07,20,12,59,24.40
2009,07,20,13,00,24.30
2009,07,20,13,01,24.20
2009,07,20,13,02,24.10
2009,07,20,13,03,24.00
2009,07,20,13,04,23.90
2009,07,20,13,05,23.90
2009,07,20,13,06,23.90
2009,07,20,13,07,24.00
2009,07,20,13,08,24.00
2009,07,20,13,09,24.10
2009,07,20,13,10,24.10
2009,07,20,13,11,24.20
2009,07,20,13,12,24.30
2009,07,20,13,13,24.40
2009,07,20,13,14,24.50
2009,07,20,13,15,24.60
2009,07,20,13,16,24.70
2009,07,20,13,17,24.80
2009,07,20,13,18,24.90
2009,07,20,13,19,24.90
2009,07,20,13,20,25.00
2009,07,20,13,21,25.00
2009,07,20,13,22,25.00
2009,07,20,13,23,25.10
2009,07,20,13,24,25.00
2009,07,20,13,25,25.10
2009,07,20,13,26,25.20
2009,07,20,13,27,25.30
2009,07,20,13,28,25.30
2009,07,20,13,29,25.30
2009,07,20,13,30,25.30
2009,07,20,13,31,25.20
2009,07,20,13,32,25.30
2009,07,20,13,33,25.30
2009,07,20,13,34,25.20
2009,07,20,13,35,25.20
2009,07,20,13,36,25.10
2009,07,20,13,37,25.10
2009,07,20,13,38,25.00
2009,07,20,13,39,25.00
2009,07,20,13,40,25.00
2009,07,20,13,41,25.00
2009,07,20,13,42,24.90
2009,07,20,13,43,24.90
2009,07,20,13,44,24.90
2009,07,20,13,45,24.80
2009,07,20,13,46,24.80
2009,07,20,13,47,24.70
2009,07,20,13,48,24.70
2009,07,20,13,49,24.60
2009,07,20,13,50,24.60
2009,07,20,13,51,24.70
2009,07,20,13,52,24.70
2009,07,20,13,53,24.70
2009,07,20,13,54,24.70
2009,07,20,13,55,24.70
2009,07,20,13,56,24.70
2009,07,20,13,57,24.70
2009,07,20,13,58,24.80
2009,07,20,13,59,24.90
2009,07,20,14,00,25.00
2009,07,20,14,01,25.10
2009,07,20,14,02,25.20
2009,07,20,14,03,25.10
2009,07,20,14,04,25.10
2009,07,20,14,05,25.10
2009,07,20,14,06,25.10
2009,07,20,14,07,25.10
2009,07,20,14,08,25.20
2009,07,20,14,09,25.20
2009,07,20,14,10,25.20
2009,07,20,14,11,25.30
2009,07,20,14,12,25.20
2009,07,20,14,13,25.20
2009,07,20,14,14,25.20
2009,07,20,14,15,25.30
2009,07,20,14,16,25.30
2009,07,20,14,17,25.30
2009,07,20,14,18,25.30
2009,07,20,14,19,25.30
2009,07,20,14,20,25.30
2009,07,20,14,21,25.30
2009,07,20,14,22,25.30
2009,07,20,14,23,25.30
2009,07,20,14,24,25.40
2009,07,20,14,25,25.40
2009,07,20,14,26,25.40
2009,07,20,14,27,25.40
2009,07,20,14,28,25.40
2009,07,20,14,29,25.40
2009,07,20,14,30,25.30
2009,07,20,14,31,25.30
2009,07,20,14,32,25.30
2009,07,20,14,33,25.30
2009,07,20,14,34,25.30
2009,07,20,14,35,25.40
2009,07,20,14,36,25.50
2009,07,20,14,37,25.50
2009,07,20,14,38,25.60
2009,07,20,14,39,25.60
2009,07,20,14,40,25.70
2009,07,20,14,41,25.70
2009,07,20,14,42,25.70
2009,07,20,14,43,25.70
2009,07,20,14,44,25.70
2009,07,20,14,45,25.60
2009,07,20,14,46,25.50
2009,07,20,14,47,25.40
2009,07,20,14,48,25.30
2009,07,20,14,49,25.30
2009,07,20,14,50,25.40
2009,07,20,14,51,25.50
2009,07,20,14,52,25.60
2009,07,20,14,53,25.60
2009,07,20,14,54,25.70
2009,07,20,14,55,25.70
2009,07,20,14,56,25.70
2009,07,20,14,57,25.70
2009,07,20,14,58,25.70
2009,07,20,14,59,25.70
2009,07,20,15,00,25.70
2009,07,20,15,01,25.70
2009,07,20,15,02,25.70
2009,07,20,15,03,25.80
2009,07,20,15,04,25.80
2009,07,20,15,05,25.80
2009,07,20,15,06,25.90
2009,07,20,15,07,25.90
2009,07,20,15,08,25.90
2009,07,20,15,09,25.90
2009,07,20,15,10,25.90
2009,07,20,15,11,25.90
2009,07,20,15,12,25.80
2009,07,20,15,13,25.80
2009,07,20,15,14,25.80
2009,07,20,15,15,25.90
2009,07,20,15,16,25.90
2009,07,20,15,17,25.90
2009,07,20,15,18,25.90
2009,07,20,15,19,26.00
2009,07,20,15,20,26.00
2009,07,20,15,21,26.00
2009,07,20,15,22,26.10
2009,07,20,15,23,26.20
2009,07,20,15,24,26.20
2009,07,20,15,25,26.30
2009,07,20,15,26,26.30
2009,07,20,15,27,26.30
2009,07,20,15,28,26.30
2009,07,20,15,29,26.30
2009,07,20,15,30,26.30
2009,07,20,15,31,26.30
2009,07,20,15,32,26.20
2009,07,20,15,33,26.20
2009,07,20,15,34,26.10
2009,07,20,15,35,26.10
2009,07,20,15,36,26.10
2009,07,20,15,37,26.10
2009,07,20,15,38,26.10
2009,07,20,15,39,26.10
2009,07,20,15,40,26.10
2009,07,20,15,41,26.10
2009,07,20,15,42,26.00
2009,07,20,15,43,26.10
2009,07,20,15,44,26.10
2009,07,20,15,45,26.10
2009,07,20,15,46,26.10
2009,07,20,15,47,26.10
2009,07,20,15,48,26.10
2009,07,20,15,49,26.10
2009,07,20,15,50,26.00
2009,07,20,15,51,26.00
2009,07,20,15,52,26.00
2009,07,20,15,53,25.90
2009,07,20,15,54,25.90
2009,07,20,15,55,25.90
2009,07,20,15,56,25.90
2009,07,20,15,57,25.90
2009,07,20,15,58,25.80
2009,07,20,15,59,25.80
2009,07,20,16,00,25.80
2009,07,20,16,01,25.80
2009,07,20,16,02,25.70
2009,07,20,16,03,25.70
2009,07,20,16,04,25.70
2009,07,20,16,05,25.70
2009,07,20,16,06,25.70
2009,07,20,16,07,25.70
2009,07,20,16,08,25.70
2009,07,20,16,09,25.60
2009,07,20,16,10,25.60
2009,07,20,16,11,25.70
2009,07,20,16,12,25.70
2009,07,20,16,13,25.70
2009,07,20,16,14,25.70
2009,07,20,16,15,25.80
2009,07,20,16,16,25.90
2009,07,20,16,17,25.90
2009,07,20,16,18,26.00
2009,07,20,16,19,26.00
2009,07,20,16,20,26.10
2009,07,20,16,21,26.10
2009,07,20,16,22,26.20
2009,07,20,16,23,26.20
2009,07,20,16,24,26.20
2009,07,20,16,25,26.30
2009,07,20,16,26,26.30
2009,07,20,16,27,26.40
2009,07,20,16,28,26.40
2009,07,20,16,29,26.40
2009,07,20,16,30,26.40
2009,07,20,16,31,26.40
2009,07,20,16,32,26.50
2009,07,20,16,33,26.50
2009,07,20,16,34,26.60
2009,07,20,16,35,26.60
2009,07,20,16,36,26.60
2009,07,20,16,37,26.70
2009,07,20,16,38,26.80
2009,07,20,16,39,26.90
2009,07,20,16,40,27.00
2009,07,20,16,41,27.10
2009,07,20,16,42,27.10
2009,07,20,16,43,27.20
2009,07,20,16,44,27.20
2009,07,20,16,45,27.30
2009,07,20,16,46,27.20
2009,07,20,16,47,27.20
2009,07,20,16,48,27.20
2009,07,20,16,49,27.10
2009,07,20,16,50,27.10
2009,07,20,16,51,27.10
2009,07,20,16,52,27.00
2009,07,20,16,53,26.90
2009,07,20,16,54,26.90
2009,07,20,16,55,26.90
2009,07,20,16,56,26.80
2009,07,20,16,57,26.80
2009,07,20,16,58,26.70
2009,07,20,16,59,26.70
2009,07,20,17,00,26.70
2009,07,20,17,01,26.60
2009,07,20,17,02,26.50
2009,07,20,17,03,26.40
2009,07,20,17,04,26.40
2009,07,20,17,05,26.40
2009,07,20,17,06,26.40
2009,07,20,17,07,26.40
2009,07,20,17,08,26.40
2009,07,20,17,09,26.40
2009,07,20,17,10,26.40
2009,07,20,17,11,26.30
2009,07,20,17,12,26.30
2009,07,20,17,13,26.30
2009,07,20,17,14,26.30
2009,07,20,17,15,26.30
2009,07,20,17,16,26.20
2009,07,20,17,17,26.20
2009,07,20,17,18,26.20
2009,07,20,17,19,26.20
2009,07,20,17,20,26.20
2009,07,20,17,21,26.30
2009,07,20,17,22,26.30